User: anonymous   Login
Location: Grange Verzio
(44.5000°N, 6.9833°E)
Time: 23:08:25
(UTC+00:00)
Language:

Cosmos 2219 Rocket - Orbit

View from above orbital plane
View from above orbital plane
View from above satellite
View from above satellite

Ground track
Ground track

The orbit data is extracted from the following two-line orbital elements,

1 22220U 92076B   23156.44055911 -.00000213  00000-0 -82928-4 0  9999
2 22220  70.9984 151.7246 0013541 201.7520 271.6655 14.16564761579031
Epoch (UTC): 05 June 2023 10:34:24
Eccentricity: 0.0013541
inclination: 70.9984°
perigee height: 827 km
apogee height: 847 km
right ascension of ascending node: 151.7246°
argument of perigee: 201.7520°
revolutions per day: 14.16564761
mean anomaly at epoch: 271.6655°
orbit number at epoch: 57903

The dashed part of the orbit path shows where the satellite is in the earth's shadow,  

DLR